User: anonymous   Login
Location: Chiroubles
(46.1812°N, 4.6660°E)
Time: 09:32:44
(UTC+00:00)
Language:

Cosmos 2173 Rocket - Orbit

View from above orbital plane
View from above orbital plane
View from above satellite
View from above satellite

Ground track
Ground track

The orbit data is extracted from the following two-line orbital elements,

1 21797U 91081B   20293.57790017 +.00000080 +00000-0 +65044-4 0  9998
2 21797 082.9546 235.7931 0036444 269.2955 264.2956 13.77499767452400
Epoch (UTC): 19 October 2020 13:52:10
Eccentricity: 0.0036444
inclination: 82.9546°
perigee height: 946 km
apogee height: 999 km
right ascension of ascending node: 235.7931°
argument of perigee: 269.2955°
revolutions per day: 13.77499767
mean anomaly at epoch: 264.2956°
orbit number at epoch: 45240

The dashed part of the orbit path shows where the satellite is in the earth's shadow,  

DLR